Location: Favalello
(42.2939°N, 9.2706°E)
Time: 16:49:23
(UTC+00:00)

COSMO-SKYMED 1 - Pass Details

Date: 06 December 2019
Orbit: 621 x 623 km, 97.9° (Epoch: 19 January)

Event Time Altitude Azimuth Distance (km) Brightness Sun altitude
Exits shadow 16:16:34 - 41° (NE) 2,515 5.1 -5.1°
Reaches altitude 10° 16:18:36 10° 60° (ENE) 1,998 4.5 -5.4°
Maximum altitude 16:20:47 14° 90° (E) 1,767 4.4 -5.8°
Drops below altitude 10° 16:22:57 10° 121° (ESE) 1,990 4.8 -6.1°
Sets 16:26:12 0° 148° (SSE) 2,889 5.9 -6.7°
